カタログに戻る

NOAA 16 DEB

運用中PO
NORAD 41236·DEBRIS·🇺🇸 United States

打ち上げ Sep 21, 2000 から Vandenberg Space Force Base

Loading…

次のパス (今後24時間)

TLE

最新Source: Space-Track

元期: Sep 14, 2026, 04:50 UTC

1 41236U 00055ER  26257.20161343  .00004171  00000-0  10415-2 0  9994
2 41236  99.0441 160.4004 0028064 201.1408 158.8627 14.51914497560650

AllMySatでNOAA 16 DEBをリアルタイム追跡

Download on the App Store